Location: Cornospital
(48.0620°N, 3.3837°W)
Time: 20:23:52
(UTC+00:00)

Cosmos 968 Rocket - Pass Details

Date: 17 June 2021
Orbit: 740 x 771 km, 74.0° (Epoch: 02 August)

Event Time Altitude Azimuth Distance (km) Brightness Sun altitude
Rises 21:42:10 0° 342° (NNW) 3,190 8.3 -10.8°
Reaches altitude 10° 21:44:42 10° 351° (N) 2,263 7.1 -11.0°
Maximum altitude 21:49:27 37° 58° (ENE) 1,148 4.4 -11.5°
Enters shadow 21:53:29 14° 122° (ESE) 2,021 5.1 -11.8°
